Weather History for Riverside, CA

Change the Weather History Date:

Friday, October 4, 2013

  Actual Average Record
Temperature  
Mean Temperature 69 °F 72 °F  
Max Temperature 83 °F 85 °F 108 °F (1987)
Min Temperature 55 °F 58 °F 40 °F (1919)
Degree Days  
Heating Degree Days 0 0  
Month to date heating degree days 0 0  
Since 1 July heating degree days 0 2  
Cooling Degree Days 4 7  
Month to date cooling degree days 21 29  
Year to date cooling degree days 1883 1621  
Growing Degree Days 18 (Base 50)    
Moisture  
Dew Point 23 °F    
Average Humidity 50    
Maximum Humidity 93    
Minimum Humidity 6    
Precipitation  
Precipitation 0.00 in 0.01 in 1.27 in (1925)
Month to date precipitation 0.00 0.01  
Year to date precipitation 2.37 9.60  
Since 1 July precipitation 0.16 0.41  
Snow  
Snow 0.00 in - - ()
Month to date snowfall 0.0  
Year to date snowfall 0.0  
Since 1 July snowfall 0.0  
Snow Depth 0.00 in    
Sea Level Pressure  
Sea Level Pressure 29.95 in    
Wind  
Wind Speed 10 mph (NNE)    
Max Wind Speed 24 mph    
Max Gust Speed 40 mph    
Visibility 8 miles    
Events      
T = Trace of Precipitation, MM = Missing Value Source: NWS Daily Summary

Daily Weather History Graph

Daily Weather History Graph

Search for Another Location

Airport:

Trip Planner

Search our weather history database for the weather conditions in past years. The results will help you decide how hot, cold, wet, or windy it might be!

Date:

Astronomy

Oct. 04, 2013 Rise Set
Actual Time 6:46 AM PDT 6:29 PM PDT
Civil Twilight 6:21 AM PDT 6:54 PM PDT
Nautical Twilight 5:52 AM PDT 7:23 PM PDT
Astronomical Twilight 5:23 AM PDT 7:52 PM PDT
Moon 6:26 AM PDT (10/4) 6:16 PM PDT (10/4)
Length of Visible Light 12h 32m
Length of Day
11h 42m
Waning Crescent, 0% of the Moon is Illuminated
Oct 4
Waning Crescent
Oct 4
New
Oct 11
First Quarter
Oct 18
Full
Oct 26
Last Quarter

Hourly Weather History & Observations

Time (PDT) Temp. Dew Point Humidity Pressure Visibility Wind Dir Wind Speed Gust Speed Precip Events Conditions
12:53 AM 61.0 °F 55.9 °F 83% 29.86 in 8.0 mi Calm Calm - N/A   Clear
1:53 AM 60.1 °F 55.0 °F 83% 29.87 in 8.0 mi Calm Calm - N/A   Clear
2:53 AM 59.0 °F 54.0 °F 83% 29.87 in 8.0 mi Calm Calm - N/A   Clear
3:53 AM 57.0 °F 54.0 °F 89% 29.86 in 7.0 mi Calm Calm - N/A   Clear
4:53 AM 55.0 °F 52.0 °F 89% 29.88 in 6.0 mi Calm Calm - N/A   Clear
5:53 AM 55.9 °F 53.1 °F 90% 29.89 in 7.0 mi Calm Calm - N/A   Partly Cloudy
6:46 AM 69.8 °F 14.0 °F 12% 29.94 in 4.0 mi NNE 16.1 mph 28.8 mph N/A   Haze
6:53 AM 69.1 °F 14.0 °F 12% 29.90 in 4.0 mi NNE 11.5 mph 28.8 mph N/A   Haze
7:53 AM 70.0 °F 12.9 °F 11% 29.93 in 4.0 mi NNE 16.1 mph 33.4 mph N/A   Haze
8:53 AM 72.0 °F 14.0 °F 11% 29.95 in 4.0 mi NNE 17.3 mph 36.8 mph N/A   Haze
9:00 AM 71.6 °F 14.0 °F 11% 29.99 in 3.0 mi NNE 15.0 mph 34.5 mph N/A   Haze
9:53 AM 73.0 °F 14.0 °F 11% 29.96 in 5.0 mi NNE 21.9 mph 35.7 mph N/A   Haze
10:53 AM 75.9 °F 14.0 °F 10% 29.98 in 6.0 mi NNE 11.5 mph 34.5 mph N/A   Haze
11:53 AM 78.1 °F 14.0 °F 9% 29.97 in 10.0 mi North 16.1 mph 33.4 mph N/A   Clear
12:53 PM 80.1 °F 12.0 °F 8% 29.95 in 10.0 mi NNE 13.8 mph 34.5 mph N/A   Clear
1:53 PM 82.0 °F 12.0 °F 7% 29.93 in 10.0 mi NNE 13.8 mph 27.6 mph N/A   Clear
2:53 PM 82.9 °F 9.0 °F 6% 29.93 in 10.0 mi North 17.3 mph 33.4 mph N/A   Clear
3:53 PM 82.9 °F 9.0 °F 6% 29.92 in 10.0 mi North 15.0 mph 33.4 mph N/A   Clear
4:53 PM 81.0 °F 10.9 °F 7% 29.94 in 10.0 mi North 16.1 mph 31.1 mph N/A   Clear
5:53 PM 79.0 °F 12.0 °F 8% 29.95 in 10.0 mi NNE 13.8 mph 33.4 mph N/A   Clear
6:53 PM 75.9 °F 14.0 °F 10% 29.97 in 10.0 mi NNE 10.4 mph 23.0 mph N/A   Clear
7:53 PM 75.0 °F 14.0 °F 10% 29.99 in 10.0 mi NE 10.4 mph 21.9 mph N/A   Clear
8:53 PM 73.9 °F 15.1 °F 11% 30.02 in 10.0 mi NE 9.2 mph 17.3 mph N/A   Clear
9:53 PM 73.0 °F 16.0 °F 11% 30.04 in 10.0 mi NE 8.1 mph - N/A   Clear
10:53 PM 71.1 °F 18.0 °F 13% 30.05 in 10.0 mi Calm Calm - N/A   Clear
11:53 PM 69.1 °F 18.0 °F 14% 30.05 in 10.0 mi Calm Calm - N/A   Clear